Regional Weather Roundup
Issued by NWS Albany, NY

Home | Current Version | Previous Version | Graphics & Text | Print | Product List | Glossary On
Versions: 1 2 3 4 5 6 7 8 9 10 11 12 13 14 15 16 17 18 19 20 21 22 23 24 25 26 27 28
000
ASUS41 KALY 302210
RWRALY

NEW YORK STATE HOURLY WEATHER ROUNDUP
NATIONAL WEATHER SERVICE ALBANY NY
600 PM EDT THU OCT 30 2014

NOTE: "FAIR" INDICATES FEW OR NO CLOUDS BELOW 12,000 FEET WITH NO
SIGNIFICANT WEATHER AND/OR NO OBSTRUCTIONS TO VISIBILITY.

NYZ032-033-038>043-046>054-057>066-NYZ062>081-302300-
EAST


CITY           SKY/WX    TMP DP  RH WIND       PRES   REMARKS
ALBANY         PTCLDY    48  36  63 W12       30.00R
GLENS FALLS    CLOUDY    50  34  54 NW10      29.97R
POUGHKEEPSIE   MOCLDY    54  36  50 W7        29.97R
NEWBURGH       PTCLDY    50  37  62 W9        29.99R
MONTGOMERY     PTCLDY    49  35  58 W7        29.98R
WHITE PLAINS   PTCLDY    51  34  52 W8        29.98R
ISLIP          PTCLDY    53  37  54 W7        29.96R
NEW YORK CITY  PTCLDY    55  36  48 NW15      29.98R
CENTRAL PARK   CLEAR     53  33  46 VRB5      30.02R
$$

NYZ005>009-017-018-044>046-055-056-302300-
CENTRAL


CITY           SKY/WX    TMP DP  RH WIND       PRES   REMARKS
FULTON         MOCLDY    44  34  67 W8        30.04S
SYRACUSE       MOCLDY    45  35  68 W7        30.04S
ROME           CLOUDY    43  37  79 NW7       30.05R
ELMIRA         CLOUDY    47  34  60 NW3       30.03S
BINGHAMTON     CLOUDY    43  30  60 NW5       30.02R
MONTICELLO     CLEAR     43  34  70 W6        30.01S
$$

NYZ026>034-041>043-302300-
NORTH


CITY           SKY/WX    TMP DP  RH WIND       PRES   REMARKS
WATERTOWN      PTCLDY    43  32  65 CALM      30.02S
FORT DRUM      NOT AVBL
MASSENA        CLOUDY    43  30  60 NW7       30.02S
SARANAC LAKE   MIX PCPN  36  31  82 W6        29.96R WCI  31
PLATTSBURGH    PTCLDY    45  32  60 NW7       29.99R
$$

NYZ001>004-010>016-019>021-302300-
WEST


CITY           SKY/WX    TMP DP  RH WIND       PRES   REMARKS
NIAGARA FALLS  MOCLDY    46  34  62 NW6       30.04S
BUFFALO        CLOUDY    47  34  60 W9        30.04S
DUNKIRK        CLOUDY    47  36  65 SW6       30.06S
JAMESTOWN      CLOUDY    43  34  70 NW5       30.04S
WELLSVILLE     CLOUDY    43  32  65 NW9       30.03S
ROCHESTER      MOCLDY    46  35  65 NW6       30.05R
PENN YAN       CLOUDY    46  34  62 CALM      30.04R
$$

             KEY
       WCI = WIND CHILL INDEX
       VSB = VISIBILITY
       HX  = HEAT INDEX
$$



USA.gov is the U.S. government's official web portal to all federal, state and local government web resources and services.